Date,TemperatureHighF,TemperatureAvgF,TemperatureLowF,DewpointHighF,DewpointAvgF,DewpointLowF,HumidityHigh,HumidityAvg,HumidityLow,PressureMaxIn,PressureMinIn,WindSpeedMaxMPH,WindSpeedAvgMPH,GustSpeedMaxMPH,PrecipitationSumIn
2012-1-1,73,61,52,31,24,19,27,25,21,30.33,30.22,20,10,22,0.00
2012-1-2,73,58,45,30,23,15,30,26,21,30.33,30.24,18,9,18,0.00
2012-1-3,76,53,35,32,21,10,44,29,20,30.33,30.24,15,4,17,0.00
2012-1-4,76,57,36,31,23,13,44,28,20,30.39,30.30,19,7,20,0.00
2012-1-5,75,57,32,31,22,10,46,27,20,30.30,30.13,15,6,17,0.00
2012-1-6,70,47,27,35,22,13,62,40,21,30.13,30.04,13,2,13,0.00
2012-1-7,64,49,24,36,23,15,70,39,24,30.13,30.01,17,4,21,0.00
2012-1-8,63,51,34,26,18,6,32,28,24,30.22,30.10,31,10,32,0.00
2012-1-9,62,50,28,25,19,9,48,29,24,30.24,30.19,28,9,28,0.00
2012-1-10,65,43,26,31,19,11,62,41,22,30.24,30.10,13,2,13,0.00
2012-1-11,65,49,28,29,22,14,63,37,22,30.13,30.07,21,5,22,0.00
2012-1-12,65,53,43,27,20,14,30,27,22,30.13,30.04,17,8,17,0.00
2012-1-13,62,53,42,25,20,10,32,27,24,30.24,30.13,33,14,33,0.00
2012-1-14,64,46,33,26,15,5,33,28,24,30.24,30.16,16,5,17,0.00
2012-1-15,57,43,26,36,22,6,74,45,27,30.19,30.10,15,4,18,0.00
2012-1-16,45,40,30,43,37,24,100,89,72,30.19,30.07,19,6,19,0.31
2012-1-17,53,37,24,35,27,20,100,70,40,30.27,30.19,10,2,10,0.00
2012-1-19,66,40,22,32,20,13,70,49,22,30.22,30.07,14,2,15,0.00
2012-1-20,63,40,23,42,24,14,100,57,24,30.16,30.07,16,2,16,0.00
2012-1-21,50,44,32,50,38,26,100,82,58,30.13,30.04,24,6,27,0.24
2012-1-22,56,38,26,40,28,22,93,71,39,30.19,30.10,15,2,18,0.00
2012-1-23,48,42,33,46,38,29,100,87,57,30.16,29.92,28,5,35,0.08
2012-1-24,58,46,32,43,32,16,100,65,28,30.27,30.04,18,4,19,0.00
2012-1-25,71,55,38,35,27,14,52,35,22,30.27,30.22,24,5,27,0.00
2012-1-26,75,52,34,38,27,23,69,44,20,30.24,30.10,18,3,19,0.00
2012-1-27,64,50,31,38,25,15,84,42,24,30.19,30.07,29,10,30,0.00
2012-1-28,65,54,40,27,20,9,32,27,22,30.27,30.16,33,15,35,0.00
2012-1-29,68,52,27,28,19,3,34,27,22,30.30,30.16,25,8,25,0.00
2012-1-30,65,41,22,31,17,3,60,39,22,30.16,30.04,17,2,18,0.00
2012-1-31,64,41,22,29,19,11,63,44,24,30.19,30.04,13,2,16,0.00
2012-2-1,64,46,27,34,25,12,82,47,24,30.22,30.10,20,4,23,0.00
2012-2-2,63,44,23,36,22,8,84,47,24,30.13,29.98,13,4,15,0.00
2012-2-3,58,46,36,23,15,6,32,29,26,30.10,30.04,22,9,25,0.00
2012-2-4,58,43,38,22,15,11,36,31,26,30.13,30.07,16,8,17,0.00
2012-2-5,64,49,32,26,19,12,45,31,24,30.13,30.04,16,7,17,0.00
2012-2-6,62,50,37,25,19,10,36,29,24,30.10,30.01,18,10,18,0.00
2012-2-7,55,50,44,30,20,16,57,32,27,30.04,29.95,26,11,26,0.00
2012-2-8,65,51,32,31,25,14,66,40,22,30.24,30.04,23,7,24,0.00
2012-2-9,70,49,31,35,23,14,56,37,21,30.27,30.19,17,3,17,0.00
2012-2-10,70,47,26,39,24,17,72,44,21,30.24,30.13,17,3,17,0.00
2012-2-11,54,42,24,46,32,15,100,71,46,30.13,29.95,20,6,22,0.00
2012-2-12,52,44,40,42,38,31,100,82,48,30.04,29.98,18,6,20,0.00
2012-2-13,51,42,34,43,38,30,100,88,57,30.04,29.92,27,8,28,0.04
2012-2-14,52,41,34,38,33,26,100,79,40,30.07,29.92,14,4,15,0.08
2012-2-15,48,39,34,40,34,27,100,82,56,30.07,29.89,20,5,22,0.31
2012-2-16,53,44,34,32,24,14,90,49,28,30.13,29.95,28,8,31,0.00
2012-2-17,62,43,25,32,20,11,69,44,24,30.22,30.13,17,3,17,0.00
2012-2-18,59,42,24,42,27,16,100,62,26,30.19,30.04,18,4,18,0.00
2012-2-19,52,44,39,42,36,29,100,79,46,30.10,29.98,17,6,19,0.00
2012-2-20,56,40,25,38,28,20,90,64,40,30.13,30.07,15,3,15,0.00
2012-2-21,68,49,34,28,22,14,66,37,22,30.22,30.10,23,6,24,0.00
2012-2-22,72,56,33,34,27,21,63,35,21,30.19,30.04,26,6,26,0.00
2012-2-23,75,52,27,41,26,17,74,42,20,30.04,29.92,15,3,15,0.00
2012-2-24,76,56,34,32,23,16,52,29,20,30.19,30.04,19,6,21,0.00
2012-2-25,66,45,29,31,23,18,62,43,27,30.19,30.01,16,3,16,0.00
2012-2-26,68,44,22,41,26,13,98,55,22,30.01,29.92,18,4,19,0.00
2012-2-27,52,39,32,37,31,26,100,74,44,29.95,29.83,20,4,24,0.12
2012-2-28,52,36,25,39,28,21,100,75,40,30.24,29.92,10,1,10,0.20
2012-2-29,50,37,22,40,29,18,100,76,45,30.24,30.16,20,5,20,0.00
2012-3-1,51,43,36,41,37,32,100,84,51,30.19,30.04,22,9,22,0.00
2012-3-2,57,43,27,37,22,4,100,50,26,30.30,30.07,33,8,33,0.00
2012-3-3,69,54,29,29,21,4,38,27,22,30.30,30.27,30,11,31,0.00
2012-3-4,74,59,40,31,23,14,34,25,20,30.24,30.13,21,8,25,0.00
2012-3-5,75,51,33,35,23,14,58,36,20,30.16,30.04,15,3,15,0.00
2012-3-6,61,41,24,39,28,16,81,62,28,30.04,29.83,25,6,26,0.00
2012-3-7,57,40,28,35,18,9,92,43,26,30.16,29.83,24,5,24,0.00
2012-3-8,65,51,31,27,19,6,38,28,22,30.33,30.16,33,10,33,0.00
2012-3-9,71,53,32,30,20,6,46,28,21,30.30,30.13,25,7,27,0.00
2012-3-10,70,46,24,35,20,11,63,39,21,30.13,30.04,17,3,19,0.00
2012-3-11,65,44,24,34,22,14,64,44,22,30.10,30.04,15,3,17,0.00
2012-3-12,65,44,23,40,25,15,74,49,27,30.10,30.04,16,3,16,0.00
2012-3-13,64,44,24,42,27,18,78,54,27,30.10,30.04,18,4,18,0.00
2012-3-14,66,46,26,44,30,21,82,58,27,30.19,30.10,15,3,16,0.00
2012-3-15,69,48,27,47,31,22,98,58,26,30.19,30.10,18,3,18,0.00
2012-3-16,66,50,31,46,38,25,100,64,38,30.13,29.98,19,5,19,0.00
2012-3-17,51,43,34,46,41,34,100,93,66,29.92,29.77,28,10,31,0.79
2012-3-18,40,34,32,35,30,25,100,86,60,29.95,29.68,29,9,31,0.20
2012-3-19,50,39,30,36,30,21,100,76,36,30.04,29.89,23,8,25,0.12
2012-3-20,64,44,26,33,26,22,100,58,24,30.19,30.04,17,3,18,0.00
2012-3-21,72,51,30,42,31,24,84,53,24,30.19,30.04,17,3,17,0.00
2012-3-22,73,52,33,47,33,28,88,54,28,30.07,29.98,17,3,20,0.00
2012-3-23,70,50,31,43,34,26,100,59,26,30.07,30.04,16,3,17,0.00
2012-3-24,69,51,34,40,34,28,90,56,30,30.07,29.98,17,3,17,0.00
2012-3-25,64,45,37,45,37,30,100,78,36,29.98,29.86,29,6,29,0.31
2012-3-26,61,46,35,40,35,29,100,67,38,30.13,29.98,17,4,19,0.04
2012-3-27,66,46,27,40,32,23,87,62,27,30.13,30.07,16,3,19,0.00
2012-3-28,65,49,29,41,33,24,81,57,27,30.13,30.04,17,4,19,0.00
2012-3-29,73,51,32,48,35,27,88,59,24,30.10,30.04,17,4,17,0.00
2012-3-30,72,54,35,47,37,30,87,58,28,30.07,30.04,15,3,17,0.00
2012-3-31,53,43,33,47,37,28,100,81,64,30.07,29.98,21,5,21,0.00
2012-4-1,54,41,32,45,34,26,100,79,39,30.07,29.98,28,7,28,0.04
2012-4-2,69,48,28,32,25,20,86,47,22,30.07,29.98,15,4,17,0.00
2012-4-3,73,53,31,37,25,14,62,35,21,30.10,30.01,17,4,21,0.00
2012-4-4,72,51,31,43,27,22,75,46,21,30.10,29.98,15,3,18,0.00
2012-4-5,64,46,28,38,29,19,82,55,27,30.04,29.92,20,6,22,0.00
2012-4-6,68,48,25,36,26,17,100,49,22,30.13,30.04,18,5,22,0.00
2012-4-7,75,56,35,31,21,10,38,26,20,30.16,30.10,21,8,24,0.00
2012-4-8,82,54,29,39,24,11,50,33,20,30.16,30.10,17,4,20,0.00
2012-4-9,80,55,30,38,27,18,62,39,18,30.13,30.04,18,4,22,0.00
2012-4-10,72,48,31,46,31,17,100,57,24,30.04,29.92,18,5,21,0.00
2012-4-11,55,46,42,46,39,29,100,77,44,30.13,29.92,26,10,26,0.16
2012-4-12,57,46,38,42,36,29,100,72,39,30.19,30.07,22,9,22,0.00
2012-4-13,53,43,34,42,38,33,100,86,52,30.07,29.77,31,10,33,0.67
2012-4-14,49,40,34,38,32,26,100,77,50,30.10,29.80,25,12,33,0.12
2012-4-15,66,47,26,38,30,22,93,57,30,30.19,30.10,17,4,20,0.00
2012-4-16,79,54,32,41,32,26,96,50,22,30.22,30.13,17,4,18,0.00
2012-4-17,81,58,35,45,34,27,86,47,21,30.19,30.07,17,3,17,0.00
2012-4-18,78,56,34,47,33,27,80,48,22,30.13,30.01,16,3,16,0.00
2012-4-19,81,61,37,50,39,31,84,50,26,30.10,30.01,15,3,15,0.00
2012-4-20,92,64,41,42,38,34,82,45,18,30.13,30.07,17,3,22,0.00
2012-4-21,91,68,44,52,40,35,72,43,18,30.10,30.01,18,3,20,0.00
2012-4-22,86,65,43,53,40,35,76,46,20,30.07,30.04,17,4,18,0.00
2012-4-23,58,50,41,54,47,32,100,88,64,30.10,30.04,14,4,15,0.00
2012-4-24,77,59,44,48,42,33,100,61,22,30.13,30.04,15,4,19,0.00
2012-4-25,76,61,51,52,42,33,100,56,22,30.10,29.95,23,6,24,0.04
2012-4-26,61,52,46,51,44,38,100,77,48,30.10,29.92,22,8,25,0.43
2012-4-27,71,56,46,48,44,38,100,68,34,30.13,30.01,15,5,17,0.00
2012-4-28,79,58,40,53,39,30,100,56,22,30.04,29.92,18,3,21,0.00
2012-4-29,86,63,39,46,39,32,78,47,20,30.01,29.92,19,5,21,0.00
2012-4-30,80,68,47,49,44,36,78,46,22,30.04,30.01,20,5,20,0.00
2012-5-1,63,53,42,54,47,36,100,81,52,30.01,29.92,13,4,14,0.00
2012-5-2,57,51,47,50,44,39,100,81,54,30.04,29.95,13,6,13,0.00
2012-5-3,68,56,47,51,46,38,100,73,36,30.10,30.01,20,7,20,0.00
2012-5-4,70,58,47,50,41,30,98,57,27,30.13,30.07,20,5,20,0.00
2012-5-5,76,57,34,48,36,29,84,52,22,30.07,30.04,15,3,17,0.00
2012-5-6,76,48,36,50,38,31,92,70,30,30.07,30.01,16,1,17,0.00
2012-5-7,82,60,34,45,33,25,81,44,18,30.07,30.01,27,4,27,0.00
2012-5-8,80,60,34,41,29,14,68,37,18,30.07,29.98,32,6,33,0.00
2012-5-9,90,64,36,42,32,14,62,34,18,30.04,29.98,22,4,24,0.00
2012-5-10,84,61,37,43,31,20,63,36,18,30.01,29.95,17,4,17,0.00
2012-5-11,76,57,31,40,32,20,63,42,20,30.10,29.95,17,4,19,0.00
2012-5-12,85,65,37,46,37,30,78,41,20,30.16,30.07,17,4,17,0.00
2012-5-13,87,64,35,45,38,28,76,44,20,30.16,30.10,16,4,17,0.00
2012-5-14,85,63,38,51,37,29,80,44,20,30.13,30.04,15,4,19,0.00
2012-5-15,82,60,31,44,32,22,74,39,18,30.07,29.98,16,3,17,0.00
2012-5-16,93,68,38,46,37,28,74,38,18,30.04,29.98,18,4,19,0.00
2012-5-17,88,67,42,46,37,30,64,38,20,29.98,29.92,20,5,20,0.00
2012-5-18,73,59,46,50,42,33,100,58,32,29.98,29.89,18,6,18,0.00
2012-5-19,85,63,37,48,39,31,86,48,20,30.04,29.95,17,4,18,0.00
2012-5-20,98,70,42,45,37,28,68,36,16,30.10,30.01,19,4,19,0.00
2012-5-21,92,70,43,46,35,22,60,32,18,30.10,30.04,20,4,21,0.00
2012-5-22,89,65,39,44,33,22,58,33,20,30.07,29.95,15,4,17,0.00
2012-5-23,79,63,42,46,38,29,66,42,26,29.95,29.83,17,5,19,0.00
2012-5-24,76,61,42,55,46,40,100,63,32,29.83,29.77,17,7,21,0.00
2012-5-25,63,51,41,52,42,31,100,75,36,29.89,29.77,27,9,28,0.00
2012-5-26,63,49,40,41,34,30,100,60,34,30.10,29.89,26,8,26,0.00
2012-5-27,77,55,29,45,33,23,82,50,22,30.10,30.04,18,4,20,0.00
2012-5-28,86,62,36,45,33,23,75,39,20,30.07,30.04,20,4,20,0.00
2012-5-29,84,62,36,42,31,16,63,34,20,30.10,30.04,18,4,18,0.00
2012-5-30,84,62,34,43,32,19,60,35,20,30.10,30.07,17,4,18,0.00
2012-5-31,96,71,40,46,38,30,76,37,16,30.10,29.98,18,4,22,0.00
2012-6-1,94,70,43,45,35,17,56,32,16,30.01,29.95,17,4,17,0.00
2012-6-2,88,66,38,43,32,16,52,30,20,29.98,29.95,17,4,17,0.00
2012-6-3,82,74,53,49,42,37,57,34,21,30.01,29.98,19,6,19,0.00
2012-6-4,80,62,43,52,42,36,96,52,26,30.07,29.98,17,5,20,0.00
2012-6-5,74,60,51,53,45,33,100,64,24,30.04,29.98,19,7,21,0.00
2012-6-6,82,61,36,47,37,30,84,47,21,29.98,29.89,22,4,22,0.00
2012-6-7,89,67,38,44,36,29,69,38,20,30.01,29.95,19,4,20,0.00
2012-6-8,86,66,42,44,36,29,60,37,20,29.98,29.92,18,5,20,0.00
2012-6-9,78,57,40,47,36,31,72,49,22,29.95,29.89,17,3,18,0.00
2012-6-10,84,61,37,46,37,29,78,45,20,30.04,29.92,18,4,18,0.00
2012-6-11,88,68,40,44,38,29,70,39,20,30.10,30.01,19,4,19,0.00
2012-6-12,93,70,44,48,39,32,64,38,18,30.10,30.01,17,4,19,0.00
2012-6-13,86,66,39,44,34,17,69,35,20,30.04,29.92,16,4,17,0.00
2012-6-14,83,63,38,46,32,16,58,33,21,29.95,29.92,17,4,17,0.00
2012-6-15,81,62,39,49,39,28,69,45,30,29.95,29.89,17,4,18,0.00
2012-6-16,91,66,45,46,36,22,72,39,18,30.04,29.92,26,5,26,0.00
2012-6-17,96,66,49,44,28,21,38,25,16,30.07,30.01,18,4,18,0.00
2012-6-18,90,69,43,43,33,16,42,27,18,30.04,29.98,20,5,20,0.00
2012-6-19,85,65,38,43,34,26,63,35,20,30.01,29.95,23,4,23,0.00
2012-6-20,90,67,39,44,34,25,62,34,18,29.98,29.92,17,4,17,0.00
2012-6-21,87,67,40,42,35,26,58,34,20,30.01,29.98,15,5,17,0.00
2012-6-22,84,64,37,42,35,26,68,37,21,30.01,29.92,22,5,24,0.00
2012-6-23,84,49,37,44,29,19,63,49,20,29.98,29.89,16,1,19,0.00
2012-6-24,85,64,38,42,32,18,54,33,20,30.07,29.98,18,4,19,0.00
2012-6-25,86,64,38,43,32,17,66,34,18,30.10,30.04,17,4,19,0.00
2012-6-26,91,65,32,42,29,12,50,28,18,30.04,29.92,16,4,18,0.00
2012-6-27,92,69,38,42,34,21,52,31,18,30.01,29.95,20,5,20,0.00
2012-6-28,88,72,55,41,31,21,27,22,20,30.16,30.10,14,4,17,0.00
2012-6-29,93,70,43,43,31,16,44,25,18,30.16,30.07,20,5,20,0.00
2012-6-30,91,66,38,42,31,16,48,28,18,30.10,30.01,17,4,20,0.00
2012-7-1,88,68,42,43,34,25,56,32,20,30.01,29.95,20,4,20,0.00
2012-7-2,88,68,42,49,38,29,64,37,20,30.01,29.95,19,4,19,0.00
2012-7-3,87,74,50,52,44,35,58,37,24,30.01,29.95,16,5,17,0.00
2012-7-4,84,70,56,53,44,33,68,42,22,30.04,29.98,17,4,21,0.00
2012-7-5,89,71,50,52,44,33,70,41,22,30.07,30.01,17,6,17,0.00
2012-7-6,90,71,50,54,41,22,75,38,18,30.13,30.07,20,4,21,0.00
2012-7-7,95,72,45,43,35,19,44,29,16,30.13,30.10,20,4,21,0.00
2012-7-8,97,71,42,44,32,16,42,25,16,30.13,30.10,19,4,20,0.00
2012-7-9,101,78,51,45,35,21,39,23,15,30.10,30.04,21,4,21,0.00
2012-7-10,103,80,54,46,39,28,42,25,14,30.10,29.98,19,5,24,0.00
2012-7-11,104,85,58,47,41,32,42,23,14,30.04,29.98,17,4,17,0.00
2012-7-12,90,76,66,59,49,37,68,41,18,30.10,29.98,28,7,32,0.00
2012-7-13,88,74,63,60,54,43,81,52,24,30.10,30.01,23,4,24,0.00
2012-7-14,94,76,59,58,48,37,78,43,16,30.10,30.04,19,4,23,0.00
2012-7-15,90,65,50,58,41,31,70,44,22,30.07,30.01,17,4,18,0.00
2012-7-16,86,63,38,43,36,26,60,40,20,30.07,30.01,17,4,20,0.00
2012-7-17,83,62,37,43,36,27,69,42,21,30.10,30.01,16,4,19,0.00
2012-7-18,89,68,44,45,36,30,62,35,20,30.10,30.07,17,3,18,0.00
2012-7-19,96,76,53,45,38,31,44,27,16,30.13,30.04,22,5,23,0.00
2012-7-20,96,74,52,48,40,33,56,33,16,30.16,30.07,17,4,20,0.00
2012-7-21,100,77,55,50,42,38,58,33,15,30.13,30.04,20,4,20,0.00
2012-7-22,99,78,60,51,43,39,52,32,15,30.10,30.04,17,4,19,0.00
2012-7-23,94,76,60,48,39,24,52,29,16,30.10,30.07,19,4,20,0.00
2012-7-24,90,71,52,43,34,21,44,27,18,30.13,30.07,20,4,21,0.00
2012-7-25,91,69,44,42,30,16,34,24,18,30.13,30.07,18,4,18,0.00
2012-7-26,92,72,44,42,33,19,44,26,18,30.10,30.07,17,4,19,0.00
2012-7-27,90,66,42,42,33,21,57,32,18,30.13,30.07,16,3,17,0.00
2012-7-28,93,69,40,43,33,20,58,29,16,30.13,30.07,16,4,17,0.00
2012-7-29,94,71,44,43,33,18,44,26,16,30.10,30.04,19,4,19,0.00
2012-7-30,93,74,59,61,48,24,64,40,20,30.13,30.07,18,5,18,0.00
2012-7-31,90,73,63,52,45,34,58,39,21,30.16,30.10,17,3,21,0.00
2012-8-1,93,74,56,45,39,29,52,31,18,30.19,30.10,17,4,19,0.00
2012-8-2,92,74,56,51,40,34,54,32,18,30.13,30.04,20,4,20,0.00
2012-8-3,89,72,54,52,44,38,63,39,20,30.04,29.98,16,4,17,0.00
2012-8-4,92,73,55,52,44,38,66,40,18,30.04,29.98,17,4,18,0.00
2012-8-5,99,77,53,52,43,37,66,34,15,30.13,26.64,19,4,19,0.00
2012-8-6,101,81,64,49,44,38,50,30,15,30.13,30.07,18,4,19,0.00
2012-8-7,99,80,60,51,43,37,52,31,16,30.10,30.04,17,3,17,0.00
2012-8-8,103,81,58,53,44,40,54,31,14,30.07,30.01,20,4,20,0.00
2012-8-9,106,84,62,49,43,38,51,28,14,30.10,29.95,17,3,19,0.00
2012-8-10,105,84,67,54,46,40,54,30,14,30.04,29.92,26,5,28,0.00
2012-8-11,105,78,63,59,50,40,63,42,14,31.01,26.49,26,5,29,0.04
2012-8-12,96,76,59,59,50,42,66,44,16,30.01,29.95,26,2,26,0.00
2012-8-13,98,79,61,59,48,40,68,38,16,30.01,29.95,28,3,28,0.00
2012-8-14,100,78,58,58,45,37,68,36,15,30.01,29.92,21,4,22,0.00
2012-8-15,93,76,56,50,43,40,58,34,16,30.01,29.95,17,5,17,0.00
2012-8-16,94,77,62,55,48,43,51,38,21,30.07,29.98,21,5,24,0.00
2012-8-17,96,79,71,61,55,48,68,45,24,30.10,30.01,23,6,24,0.04
2012-8-18,95,78,66,64,55,47,81,48,24,30.07,29.98,18,5,22,0.00
2012-8-19,97,76,59,57,48,42,69,40,16,30.04,29.95,18,4,20,0.00
2012-8-20,95,76,58,55,48,44,62,40,21,30.04,29.98,16,4,19,0.00
2012-8-21,92,75,59,56,50,46,68,45,26,30.04,29.98,17,4,20,0.00
2012-8-22,86,74,62,60,53,48,70,49,28,30.04,29.98,15,4,17,0.00
2012-8-23,89,72,55,62,51,48,87,53,27,30.04,29.98,17,4,19,0.00
2012-8-24,90,76,54,58,50,46,80,42,27,30.04,29.95,17,5,18,0.00
2012-8-25,87,67,53,58,44,31,76,48,20,29.98,29.95,17,3,17,0.00
2012-8-26,89,66,41,47,35,28,69,36,20,30.07,29.98,17,3,21,0.00
2012-8-27,97,72,46,44,37,28,54,31,16,30.10,30.04,17,3,17,0.00
2012-8-28,99,75,52,47,40,32,56,31,15,30.07,30.01,18,3,18,0.00
2012-8-29,96,73,59,54,44,35,64,38,16,30.04,29.95,51,3,51,0.91
2012-8-30,91,73,62,60,54,46,78,55,22,30.01,29.95,26,5,29,0.00
2012-8-31,90,73,58,59,46,33,80,45,18,30.04,29.98,17,4,23,0.00
2012-9-1,90,69,48,48,37,28,62,35,18,30.07,30.04,21,4,23,0.00
2012-9-2,93,71,51,43,35,24,42,28,18,30.07,30.01,17,3,19,0.00
2012-9-3,95,69,53,43,35,25,54,31,16,30.13,30.04,14,2,15,0.00
2012-9-4,93,75,56,46,36,24,51,27,18,30.13,30.07,18,3,22,0.00
2012-9-5,89,73,62,44,36,29,39,28,20,30.13,30.04,19,4,20,0.00
2012-9-6,87,70,54,48,43,35,57,39,20,30.10,30.04,20,4,20,0.00
2012-9-7,88,69,54,54,48,44,74,50,22,30.13,30.07,17,3,18,0.00
2012-9-8,97,76,56,55,47,40,75,42,16,30.10,30.01,16,3,17,0.00
2012-9-9,91,76,66,62,53,47,81,48,26,30.10,29.98,22,7,24,0.00
2012-9-10,88,72,66,61,56,47,81,58,27,30.04,29.98,19,9,19,0.00
2012-9-11,82,70,63,63,56,52,98,63,39,30.10,29.98,13,3,13,0.00
2012-9-12,89,72,56,62,52,46,96,55,27,30.13,30.07,10,6,10,0.00
2012-9-13,93,73,52,53,41,25,75,39,18,30.16,30.10,20,6,25,0.00
2012-9-14,92,74,53,43,35,25,39,26,18,30.19,30.10,28,7,46,0.00
2012-9-15,93,75,59,43,33,24,28,22,18,30.19,30.10,21,9,23,0.00
2012-9-16,89,70,47,42,34,25,50,29,20,30.16,30.10,20,5,24,0.00
2012-9-17,88,70,44,43,37,30,58,33,20,30.13,30.07,17,5,20,0.00
2012-9-18,92,68,44,43,37,30,58,37,18,30.13,30.07,22,3,22,0.00
2012-9-19,95,70,47,47,39,33,58,36,16,30.10,30.04,20,3,23,0.00
2012-9-20,95,70,50,46,38,31,57,36,16,30.10,30.04,20,2,23,0.00
2012-9-21,94,72,49,47,38,33,57,34,16,30.10,30.01,19,3,23,0.00
2012-9-22,92,73,57,46,40,35,52,33,18,30.10,30.04,17,3,20,0.00
2012-9-23,93,70,54,46,39,31,54,35,18,30.13,30.04,24,3,24,0.00
2012-9-24,84,66,46,45,35,30,57,35,20,30.13,30.01,23,5,24,0.00
2012-9-25,81,61,42,48,35,29,66,41,20,30.04,29.95,17,4,21,0.00
2012-9-26,86,63,40,48,38,30,74,44,20,30.01,29.92,18,3,18,0.00
2012-9-27,90,69,50,42,36,30,52,33,18,30.07,29.98,22,6,23,0.00
2012-9-28,88,66,45,46,37,32,62,38,20,30.07,29.98,19,3,20,0.00
2012-9-29,91,63,47,49,37,32,68,43,18,30.13,30.04,17,2,18,0.00
2012-9-30,96,69,47,45,36,25,57,34,16,30.13,30.07,18,3,21,0.00
2012-10-1,98,71,47,45,34,23,48,29,16,30.13,30.01,16,3,18,0.00
2012-10-2,96,70,47,43,33,24,40,28,16,30.07,29.98,20,3,22,0.00
2012-10-3,86,64,42,41,33,25,56,33,20,30.13,30.04,22,4,22,0.00
2012-10-4,80,60,40,40,33,26,58,40,22,30.16,30.10,20,3,20,0.00
2012-10-5,80,57,35,44,34,26,72,46,22,30.13,30.04,17,3,17,0.00
2012-10-6,79,58,39,50,37,31,76,50,22,30.07,29.98,23,4,23,0.00
2012-10-7,77,53,40,50,38,32,80,59,27,30.04,29.98,13,1,14,0.00
2012-10-8,77,57,37,54,37,31,81,52,22,30.04,30.01,15,3,17,0.00
2012-10-9,73,52,35,49,35,28,86,58,24,30.04,29.98,17,3,17,0.00
2012-10-10,69,56,48,49,44,38,90,68,36,30.04,29.95,18,3,20,0.00
2012-10-11,58,48,35,46,40,29,92,73,50,30.01,29.95,17,4,19,0.35
2012-10-12,58,50,42,50,42,37,100,77,51,30.19,30.01,15,4,17,0.00
2012-10-13,74,54,35,47,38,32,100,60,24,30.22,30.13,14,3,14,0.00
2012-10-14,81,65,45,39,34,27,68,35,20,30.19,30.07,25,7,27,0.00
2012-10-15,84,64,46,41,34,28,57,36,20,30.10,29.98,15,3,19,0.00
2012-10-16,48,44,41,32,30,28,62,57,51,30.04,30.01,0,0,0,0.00
2012-10-17,69,68,66,30,28,26,22,22,22,30.04,30.01,15,10,15,0.00
2012-10-18,75,65,50,52,41,26,86,45,22,30.13,30.04,19,6,19,0.00
2012-10-19,80,60,40,51,42,34,84,58,22,30.10,29.98,15,2,17,0.00
2012-10-20,73,56,40,57,46,35,100,72,38,29.98,29.89,14,3,14,0.00
2012-10-21,60,55,48,56,51,41,100,86,62,29.98,29.92,15,4,15,0.00
2012-10-22,63,54,49,54,48,37,100,82,40,30.04,29.95,17,5,18,0.00
2012-10-23,61,51,36,48,40,28,98,69,42,30.01,29.95,17,5,18,0.00
2012-10-24,64,47,31,46,33,24,100,62,27,30.10,29.98,18,4,18,0.00
2012-10-25,72,51,28,36,26,16,81,44,21,30.13,30.04,15,3,17,0.00
2012-10-26,72,63,56,30,25,21,26,24,21,30.13,30.04,28,13,30,0.00
2012-10-28,77,55,38,32,21,11,32,27,20,30.13,30.04,10,0,13,0.00
2012-10-29,80,54,32,38,23,10,52,33,18,30.19,30.10,12,0,13,0.00
2012-10-30,80,54,32,35,24,16,52,34,18,30.16,30.07,12,0,15,0.00
2012-10-31,76,52,32,35,25,17,57,38,20,30.10,30.04,10,0,11,0.00
2012-11-1,70,52,31,38,29,20,64,45,21,30.07,29.98,14,1,15,0.00
2012-11-2,69,48,27,41,29,21,82,53,22,30.04,29.98,14,0,15,0.00
2012-11-3,77,54,37,34,24,15,50,34,20,30.16,30.04,15,1,15,0.00
2012-11-4,79,60,38,34,25,18,44,28,18,30.19,30.13,17,5,19,0.00
2012-11-5,84,64,42,40,27,14,40,25,18,30.22,30.13,16,3,17,0.00
2012-11-6,80,57,37,38,24,13,45,30,18,30.19,30.10,9,0,10,0.00
2012-11-7,76,52,33,37,25,18,60,38,20,30.16,30.01,0,0,0,0.00
2012-11-8,66,50,31,59,42,20,100,75,39,30.07,29.92,13,5,13,0.00
2012-11-9,50,45,40,50,37,26,100,77,44,29.95,29.86,22,7,25,0.16
2012-11-10,50,40,24,39,28,18,100,66,36,30.13,29.92,26,8,26,0.00
2012-11-11,55,36,22,24,17,12,82,51,26,30.27,30.13,24,7,24,0.00
2012-11-12,64,50,35,27,18,6,32,28,24,30.24,30.16,28,9,28,0.00
2012-11-13,71,56,33,30,21,5,32,26,21,30.19,30.10,25,8,26,0.00
2012-11-14,74,56,38,31,21,8,32,26,20,30.13,30.07,17,5,19,0.00
2012-11-15,67,55,43,27,21,14,30,26,22,30.16,30.10,10,4,12,0.00
2012-11-16,68,51,36,40,28,10,70,42,30,30.16,30.07,13,3,13,0.00
2012-11-17,61,52,44,52,45,39,100,78,51,30.16,30.07,15,4,15,0.00
2012-11-18,63,51,42,51,43,33,100,78,38,30.19,30.10,15,4,17,0.00
2012-11-19,65,47,32,48,33,24,92,61,30,30.24,30.19,15,3,15,0.00
2012-11-20,69,48,30,42,27,20,76,49,22,30.19,30.10,14,4,15,0.00
2012-11-21,67,44,26,41,26,18,76,53,26,30.13,30.07,15,2,15,0.00
2012-11-22,72,51,29,42,27,22,80,48,21,30.16,30.10,18,5,21,0.00
2012-11-25,67,46,34,27,22,18,54,40,22,30.04,29.98,12,1,13,0.00
2012-11-26,71,48,29,36,24,17,63,43,21,30.16,30.04,15,3,15,0.00
2012-11-27,73,52,38,33,23,15,50,35,21,30.19,30.10,17,5,17,0.00
2012-11-28,64,46,30,36,27,15,62,48,27,30.22,30.13,17,3,17,0.00
2012-11-29,62,52,42,56,45,30,100,79,52,30.24,30.16,16,4,16,0.00
2012-11-30,60,54,48,56,51,44,100,93,60,30.19,30.13,17,5,17,0.00
2012-12-1,60,53,47,56,48,40,100,82,52,30.20,30.13,15,5,15,0.00
2012-12-2,60,52,47,54,49,43,100,90,57,30.20,30.14,15,5,17,0.00
2012-12-3,61,53,45,57,49,44,100,88,56,30.26,30.17,14,4,16,0.00
2012-12-4,72,56,36,46,36,26,100,50,24,30.32,30.23,15,5,18,0.00
2012-12-5,72,47,28,37,26,20,72,49,21,30.26,30.11,15,3,15,0.00
2012-12-6,65,46,33,47,34,26,86,64,34,30.11,29.96,12,2,13,0.00
2012-12-7,68,49,33,39,30,23,100,54,22,30.08,30.02,17,4,17,0.00
2012-12-8,66,44,26,36,24,16,68,49,22,30.08,29.99,15,3,15,0.00
2012-12-9,66,47,26,37,23,17,76,44,22,30.23,30.05,14,4,14,0.00
2012-12-10,67,51,32,28,20,12,50,29,22,30.20,30.14,18,6,18,0.00
2012-12-11,67,44,27,32,20,12,60,40,22,30.14,30.05,15,3,15,0.00
2012-12-12,61,44,22,39,27,13,75,53,26,30.05,29.90,17,6,23,0.00
2012-12-13,48,44,38,42,38,34,100,81,58,29.90,29.75,20,7,22,0.00
2012-12-14,46,39,35,38,33,27,100,82,52,29.96,29.75,20,7,25,0.00
2012-12-15,50,40,36,40,32,24,100,75,44,30.08,29.93,17,6,19,0.00
2012-12-16,50,44,38,45,41,34,100,90,70,30.14,30.08,14,4,15,0.00
2012-12-17,56,48,44,50,45,39,100,90,57,30.17,30.02,12,4,15,0.00
2012-12-18,48,43,32,48,42,19,100,95,57,30.02,29.84,26,10,32,0.00
2012-12-19,47,35,23,23,14,6,80,45,27,30.26,29.96,26,10,28,0.00
2012-12-20,52,41,34,20,12,6,33,30,27,30.23,30.11,37,16,37,0.00
2012-12-21,59,44,28,24,16,4,60,33,26,30.14,30.05,19,5,20,0.00
2012-12-22,54,36,20,30,20,11,80,55,27,30.20,30.08,15,3,16,0.00
2012-12-23,53,44,31,44,37,26,100,78,51,30.20,30.11,17,6,19,0.00
2012-12-24,54,45,35,50,42,33,100,94,56,30.11,30.02,26,8,26,0.00
2012-12-25,51,41,29,35,25,17,100,59,28,30.11,30.02,26,8,26,0.00
2012-12-26,47,38,27,44,34,18,100,84,57,30.02,29.93,25,7,31,0.00
2012-12-27,47,35,24,39,27,21,100,76,42,30.08,29.93,17,4,17,0.00
2012-12-28,50,38,26,23,17,10,81,44,28,30.14,30.08,22,7,24,0.00
2012-12-29,52,39,27,36,26,12,94,62,39,30.08,29.96,15,5,16,0.00
2012-12-30,42,34,27,37,30,24,96,86,63,30.02,29.90,14,3,14,0.00
2012-12-31,48,32,20,33,20,12,88,66,30,30.20,30.02,12,2,13,0.00
2013-1-1,47,37,25,23,17,11,81,47,30,30.20,30.11,33,13,33,0.00